[[{"header":{"parameterUnit":"m.s-1","parameterCategory":2,"la1":30.2991,"la2":30.254,"lo1":-89.0895,"lo2":-89.0444,"dy":0.0017,"dx":0.0017,"nx":28,"ny":28,"refTime":"2025-01-24T09:00:00:Z","depth":"0","parameterNumber":2,"parameterNumberName":"U-component_of_CURRENTS"},"data":[0,0,0,0,0,0,0,0,0,0,0,0,0,0,0,0,0,0,0,0,0,0,0,0,0,0,0,0,0,0,0,0,0,0,0,0,0,0,0,0,0,0,0,0,0,0,0,0,0,0,0,0,0,0,0,0,0,0,0.1431,0.1431,0,0.1427,0.1427,0.1427,0.1344,0.1342,0.134,0.1338,0.1405,0.1408,0.1412,0,0,0,0,0,0,0,0,0,0,0,0,0,0.1408,0.1409,0.1431,0.1431,0.1431,0.1427,0.1427,0.1427,0.1345,0.1342,0.1339,0.1337,0.1403,0.1408,0.1412,0,0,0,0,0,0,0,0,0,0,0,0,0,0.1412,0.1409,0.1431,0.139,0.1386,0.1427,0.1427,0.1427,0.1345,0.1342,0.1339,0.1336,0.1402,0.1407,0.1413,0.151,0,0,0.143,0.1432,0,0,0,0,0,0,0,0,0.1412,0.1413,0.1396,0.1393,0.1389,0.1383,0.1443,0.1459,0.1346,0.136,0.1338,0.1334,0.1407,0.1412,0.1416,0.1514,0.1516,0.143,0.1434,0.1436,0.1438,0,0,0,0,0,0,0,0.1412,0.1413,0.1429,0.1396,0.1392,0.1385,0.1382,0.1446,0.1402,0.1359,0.1353,0.1354,0.1405,0.1411,0.1418,0.1517,0.143,0.1435,0.1439,0.1441,0.1839,0.1845,0,0,0,0,0,0,0.1415,0.1413,0.143,0.1429,0.1393,0.1388,0.1385,0.1388,0.14,0.1398,0.1357,0.135,0.1403,0.1411,0.142,0.1574,0.1436,0.1441,0.1445,0.1831,0.184,0.1848,0,0,0,0,0,0,0.1414,0.1417,0.143,0.1421,0.1422,0.1392,0.1397,0.139,0.1401,0.1398,0.1396,0.1375,0.1401,0.1412,0.1522,0.1574,0.1444,0.1449,0.1823,0.1834,0.1844,0.1858,0,0,0,0,0,0,0.1414,0.1417,0.1432,0.1421,0.1423,0.1493,0.1399,0.1392,0.1406,0.1398,0.1415,0.1416,0.1399,0.1514,0.1528,0.1579,0.1453,0.1814,0.1828,0.1841,0.1849,0.1868,0.1885,0,0,0,0,0,0.1413,0.1466,0.1433,0.1435,0.1441,0.1497,0.15,0.1465,0.1411,0.1456,0.1469,0.1416,0.161,0.1525,0.1539,0.1592,0.1807,0.1824,0.184,0.184,0.1864,0.1884,0,0,0,0,0,0,0.1473,0.1462,0.1426,0.1472,0.1493,0.1484,0.1526,0.1489,0.1531,0.1527,0.1496,0.1504,0.1627,0.1647,0.1553,0.1767,0.1707,0.1727,0.1703,0.1726,0.1744,0.1672,0.1458,0,0,0,0,0,0.1491,0.1524,0.1513,0.1558,0.1572,0.1549,0.1565,0.1547,0.1573,0.1583,0.159,0.1638,0.1712,0.1741,0.1819,0.1926,0.1903,0.1989,0.2006,0.202,0.1986,0.2033,0.2046,0.1901,0.1901,0.1901,0,0,0.1524,0.1527,0.1543,0.1573,0.1582,0.1615,0.1553,0.1609,0.1626,0.1594,0.1654,0.1709,0.1767,0.1881,0.1938,0.1891,0.2062,0.2041,0.205,0.2008,0.205,0.2062,0.2073,0.1912,0.191,0.1908,0,0,0.1618,0.1618,0.1668,0.169,0.1719,0.1707,0.1727,0.174,0.1739,0.1821,0.1807,0.1884,0.1997,0.202,0.205,0.2233,0.2169,0.2296,0.2295,0.2342,0.235,0.2357,0.2351,0.2357,0.2286,0.2286,0.2286,0,0.1657,0.1685,0.1702,0.1752,0.1752,0.1747,0.1778,0.1808,0.1852,0.1855,0.186,0.2003,0.2047,0.2133,0.2193,0.2255,0.2261,0.2178,0.235,0.2356,0.2363,0.2355,0.2361,0.2288,0.2288,0.2288,0.2288,0,0.1765,0.178,0.1829,0.1855,0.1885,0.193,0.1941,0.1982,0.1975,0.1972,0.2074,0.2145,0.2198,0.2266,0.227,0.2364,0.2347,0.2365,0.2251,0.2375,0.2364,0.2369,0.2292,0.2291,0.229,0.229,0,0,0.1839,0.1883,0.1888,0.1875,0.1921,0.1945,0.2006,0.2024,0.2022,0.2109,0.2112,0.2258,0.2258,0.2299,0.2338,0.2379,0.2435,0.2385,0.2386,0.23,0.2506,0.2443,0.2442,0.2477,0.2479,0.248,0.2476,0,0.1891,0.1948,0.1963,0.1995,0.2006,0.201,0.2045,0.2075,0.2098,0.2127,0.2193,0.2246,0.2285,0.2307,0.2363,0.2421,0.2454,0.2432,0.2466,0.2465,0.2329,0.2448,0.2296,0.2276,0.2481,0.2482,0.2482,0,0.1957,0.197,0.1997,0.1984,0.199,0.2014,0.201,0.2048,0.21,0.2119,0.2175,0.2218,0.2292,0.2318,0.2425,0.2411,0.2454,0.2496,0.2497,0.242,0.2413,0.2197,0.2278,0.2117,0.249,0.2489,0.2489,0,0.1939,0.1975,0.1968,0.1974,0.1993,0.1992,0.1998,0.2036,0.2048,0.2101,0.2111,0.2205,0.2239,0.2332,0.2408,0.2424,0.2507,0.2539,0.2517,0.2511,0.2375,0.2354,0.2226,0.261,0.261,0.261,0.2611,0,0.1955,0.195,0.195,0.195,0.1928,0.1958,0.1948,0.1972,0.2008,0.2018,0.2093,0.212,0.225,0.2312,0.2394,0.2453,0.2495,0.2511,0.2516,0.2385,0.2367,0.2215,0.2169,0.261,0.261,0.261,0.261,0,0.1946,0.1948,0.1936,0.1931,0.192,0.1908,0.1904,0.1902,0.1939,0.1957,0.197,0.2056,0.2129,0.2232,0.2358,0.2409,0.2385,0.2496,0.2303,0.2287,0.2122,0.2086,0.1978,0.1935,0.2472,0.247,0.2469,0,0.1951,0.1943,0.1911,0.1886,0.1879,0.1858,0.184,0.1864,0.1866,0.1917,0.1923,0.1989,0.2026,0.2155,0.2258,0.2352,0.2294,0.2257,0.2274,0.2076,0.2042,0.2011,0.1982,0.2104,0.21,0.2097,0.2094,0,0.1948,0.1929,0.191,0.1851,0.1815,0.1777,0.1759,0.1751,0.1782,0.1792,0.1814,0.1844,0.1954,0.1981,0.2088,0.2144,0.2078,0.2192,0.2048,0.1785,0.1683,0.1654,0.2111,0.2064,0.2067,0.2069,0.2071,0.2072,0.1936,0.1903,0.1858,0.1793,0.1752,0.1689,0.1636,0.1637,0.1615,0.1615,0.1691,0.1712,0.172,0.1858,0.187,0.1757,0.1902,0.171,0.1694,0.169,0.1605,0.1972,0.1904,0.1906,0.1908,0.1909,0.1911,0,0.1877,0.1836,0.1795,0.1696,0.1618,0.1617,0.1565,0.1508,0.1454,0.1521,0.1521,0.1497,0.1435,0.1435,0.135,0.1261,0.1257,0.1192,0.1084,0.1099,0.1448,0.1385,0.1125,0.1125,0.1125,0.1125,0.1126,0.1126,0.1843,0.1763,0.1722,0.157,0.1506,0.1376,0.1328,0.1277,0.1302,0.127,0.128,0.1312,0.1196,0.0937,0.073,0.0723,0.0656,0.0623,0.0688,0.0857,0.0903,0.0947,0.0873,0.051,0.0509,0.0276,0.0274,0.0272]},{"header":{"parameterUnit":"m.s-1","parameterCategory":2,"la1":30.2991,"la2":30.254,"lo1":-89.0895,"lo2":-89.0444,"dy":0.0017,"dx":0.0017,"nx":28,"ny":28,"refTime":"2025-01-24T09:00:00:Z","depth":"0","parameterNumber":3,"parameterNumberName":"V-component_of_CURRENTS"},"data":[0,0,0,0,0,0,0,0,0,0,0,0,0,0,0,0,0,0,0,0,0,0,0,0,0,0,0,0,0,0,0,0,0,0,0,0,0,0,0,0,0,0,0,0,0,0,0,0,0,0,0,0,0,0,0,0,0,0,0.0165,0.0165,0,0.0207,0.0207,0.0208,0.0154,0.0152,0.015,0.0148,0.0286,0.0291,0.0296,0,0,0,0,0,0,0,0,0,0,0,0,0,0.0075,0.0077,0.0165,0.0166,0.0166,0.0207,0.0207,0.0208,0.0154,0.0152,0.0149,0.0147,0.0284,0.029,0.0297,0,0,0,0,0,0,0,0,0,0,0,0,0,0.0115,0.0077,0.0165,0.0144,0.0143,0.0207,0.0207,0.0208,0.0155,0.0152,0.0149,0.0146,0.0282,0.029,0.0298,0.0406,0,0,0.0323,0.0326,0,0,0,0,0,0,0,0,0.0113,0.0118,0.0147,0.0146,0.0144,0.0172,0.0226,0.0279,0.0155,0.015,0.0148,0.0145,0.0259,0.0269,0.0281,0.0413,0.0419,0.0323,0.0328,0.0332,0.0334,0,0,0,0,0,0,0,0.011,0.0116,0.0181,0.0148,0.0146,0.0146,0.0148,0.0235,0.0222,0.015,0.0146,0.0153,0.0258,0.0273,0.0284,0.0421,0.0323,0.033,0.0335,0.0339,0.0792,0.0799,0,0,0,0,0,0,0.0107,0.0114,0.018,0.0182,0.0121,0.0149,0.0152,0.0166,0.0219,0.0223,0.0155,0.015,0.0261,0.0275,0.0289,0.0513,0.0332,0.0339,0.0344,0.0785,0.0794,0.0802,0,0,0,0,0,0,0.0105,0.0113,0.0178,0.0148,0.0157,0.0154,0.0171,0.0168,0.0185,0.0221,0.0227,0.0173,0.0259,0.0278,0.0418,0.0514,0.0343,0.0351,0.0777,0.0788,0.0798,0.0903,0,0,0,0,0,0,0.0103,0.0113,0.0132,0.0149,0.0158,0.0253,0.0173,0.0171,0.0193,0.0187,0.024,0.0248,0.0258,0.0406,0.0426,0.0522,0.0357,0.0768,0.0782,0.0794,0.089,0.0915,0.0937,0,0,0,0,0,0.01,0.0162,0.0133,0.0141,0.0182,0.0257,0.0264,0.025,0.0197,0.0244,0.0287,0.0247,0.0505,0.0419,0.0441,0.0541,0.0761,0.0778,0.0793,0.0879,0.091,0.0937,0,0,0,0,0,0,0.0147,0.0162,0.0131,0.0195,0.0229,0.0248,0.0295,0.0267,0.0332,0.0329,0.0333,0.0351,0.0515,0.0535,0.0439,0.0722,0.0631,0.0652,0.069,0.0719,0.0742,0.0675,0.0364,0,0,0,0,0,0.0162,0.0207,0.0217,0.0275,0.0294,0.0289,0.0314,0.0307,0.0357,0.0377,0.0419,0.0494,0.0604,0.0659,0.0758,0.0907,0.0835,0.0996,0.102,0.1039,0.1009,0.0977,0.099,0.0854,0.0854,0.0854,0,0,0.0196,0.0213,0.0237,0.0288,0.0308,0.0387,0.03,0.0366,0.044,0.0393,0.0532,0.0583,0.0668,0.0838,0.0914,0.0859,0.1056,0.1059,0.1074,0.1032,0.0994,0.1006,0.1016,0.0865,0.0863,0.0862,0,0,0.0314,0.0305,0.0383,0.0422,0.0466,0.0477,0.0498,0.0537,0.0562,0.0698,0.0695,0.0786,0.0959,0.1018,0.1073,0.1295,0.1185,0.1357,0.141,0.1382,0.1389,0.1394,0.1345,0.1344,0.1361,0.1361,0.1362,0,0.0351,0.0429,0.0425,0.0515,0.0548,0.0524,0.0612,0.0671,0.0756,0.0781,0.0771,0.0971,0.104,0.1197,0.1281,0.1338,0.1284,0.1278,0.1398,0.1402,0.1405,0.1353,0.1351,0.1368,0.1368,0.1367,0.1366,0,0.0523,0.0577,0.0638,0.0726,0.0781,0.0856,0.0909,0.0976,0.0986,0.1008,0.1145,0.1222,0.1303,0.1385,0.1403,0.1501,0.1445,0.1422,0.1289,0.1422,0.1363,0.1359,0.1378,0.1376,0.1374,0.1372,0,0,0.0604,0.0724,0.0739,0.077,0.0875,0.0924,0.1074,0.1155,0.1193,0.1292,0.134,0.1534,0.1481,0.1541,0.1569,0.1562,0.1568,0.1503,0.1498,0.1387,0.1474,0.1416,0.1404,0.154,0.154,0.154,0.1428,0,0.0717,0.0869,0.0919,0.1057,0.1116,0.1145,0.1264,0.1339,0.1383,0.1444,0.1488,0.1565,0.1575,0.1588,0.1598,0.1577,0.1558,0.1598,0.1418,0.1413,0.1288,0.1399,0.1415,0.1314,0.1423,0.1422,0.1421,0,0.0851,0.0916,0.1051,0.1134,0.1163,0.1252,0.1333,0.1439,0.1527,0.155,0.1597,0.1606,0.1663,0.1622,0.1598,0.1613,0.1549,0.151,0.1504,0.1392,0.1346,0.1204,0.13,0.1233,0.1413,0.1413,0.1414,0,0.0846,0.0997,0.1076,0.1116,0.1238,0.1288,0.1351,0.1449,0.1504,0.1577,0.1584,0.1642,0.1641,0.1596,0.1549,0.1554,0.1466,0.146,0.1343,0.1337,0.1285,0.1275,0.1229,0.1398,0.1399,0.1399,0.1399,0,0.0918,0.0979,0.1062,0.1103,0.1176,0.1265,0.1342,0.1411,0.149,0.1535,0.1599,0.1619,0.1621,0.1588,0.1538,0.1427,0.1451,0.1345,0.1308,0.1334,0.1329,0.1212,0.121,0.1395,0.1396,0.1397,0.1397,0,0.0911,0.0977,0.105,0.1146,0.1174,0.1216,0.1317,0.1366,0.1437,0.1491,0.1504,0.1576,0.1538,0.152,0.1442,0.139,0.1271,0.1247,0.1271,0.1239,0.107,0.1076,0.0972,0.0967,0.11,0.1098,0.1096,0,0.0929,0.0962,0.104,0.1064,0.1105,0.1173,0.1223,0.1324,0.137,0.1458,0.1472,0.1473,0.1482,0.1368,0.1299,0.119,0.1172,0.11,0.1128,0.1056,0.1035,0.1043,0.105,0.1113,0.1112,0.1111,0.111,0,0.0926,0.0938,0.0982,0.1019,0.1062,0.1128,0.1198,0.1227,0.1337,0.1376,0.1413,0.1424,0.1361,0.1294,0.1168,0.1103,0.1088,0.1068,0.1,0.1044,0.1044,0.1023,0.1176,0.11,0.1101,0.1101,0.1102,0.1102,0.0892,0.0902,0.0934,0.0967,0.1018,0.1072,0.1099,0.1171,0.1229,0.1276,0.1331,0.133,0.1291,0.1146,0.1062,0.0922,0.0962,0.0872,0.0882,0.0892,0.0904,0.1016,0.0896,0.0896,0.0896,0.0896,0.0896,0,0.0829,0.0848,0.0881,0.0917,0.0942,0.0996,0.1073,0.1087,0.112,0.1186,0.1211,0.1192,0.1098,0.1016,0.087,0.0768,0.0784,0.0711,0.075,0.0765,0.0858,0.0875,0.0738,0.0738,0.0738,0.0738,0.0738,0.0738,0.0797,0.0789,0.0808,0.082,0.0852,0.0868,0.0899,0.0931,0.0981,0.0995,0.1,0.1029,0.0979,0.0813,0.0657,0.0633,0.0619,0.0594,0.0568,0.065,0.0667,0.0683,0.0696,0.0524,0.0524,0.0499,0.0499,0.0499]}],[{"header":{"parameterUnit":"m.s-1","parameterCategory":2,"la1":30.2991,"la2":30.254,"lo1":-89.0895,"lo2":-89.0444,"dy":0.0017,"dx":0.0017,"nx":28,"ny":28,"refTime":"2025-01-24T09:00:00:Z","depth":"2","parameterNumber":2,"parameterNumberName":"U-component_of_CURRENTS"},"data":[0,0,0,0,0,0,0,0,0,0,0,0,0,0,0,0,0,0,0,0,0,0,0,0,0,0,0,0,0,0,0,0,0,0,0,0,0,0,0,0,0,0,0,0,0,0,0,0,0,0,0,0,0,0,0,0,0,0,0.1274,0.1275,0,0.137,0.1371,0.1373,0.1375,0.1373,0.1371,0.1369,0.1541,0.1547,0.1553,0,0,0,0,0,0,0,0,0,0,0,0,0,0.1254,0.1254,0.1274,0.1275,0.1275,0.1369,0.1371,0.1374,0.1376,0.1373,0.1371,0.1369,0.1539,0.1546,0.1554,0,0,0,0,0,0,0,0,0,0,0,0,0,0.1305,0.1254,0.1274,0.1281,0.1282,0.1369,0.1371,0.1374,0.1376,0.1373,0.137,0.1367,0.1536,0.1545,0.1555,0.1674,0,0,0.1584,0.1588,0,0,0,0,0,0,0,0,0.1302,0.1307,0.128,0.1281,0.1282,0.135,0.1427,0.1475,0.1377,0.135,0.1369,0.1366,0.148,0.1494,0.153,0.1682,0.1689,0.1585,0.1591,0.1595,0.1598,0,0,0,0,0,0,0,0.1299,0.1304,0.1321,0.128,0.1281,0.1333,0.1337,0.1437,0.1439,0.1352,0.135,0.1348,0.1482,0.1521,0.1534,0.1692,0.1585,0.1593,0.1599,0.1603,0.2046,0.2052,0,0,0,0,0,0,0.1264,0.13,0.1318,0.1323,0.1275,0.1335,0.1339,0.1338,0.1436,0.1445,0.135,0.1347,0.1506,0.1523,0.1541,0.1754,0.1595,0.1604,0.161,0.204,0.2047,0.2054,0,0,0,0,0,0,0.1264,0.1265,0.1314,0.1307,0.1315,0.1336,0.1336,0.1341,0.1393,0.1432,0.1444,0.1395,0.1504,0.1527,0.169,0.1757,0.1608,0.1617,0.2033,0.2042,0.205,0.2139,0,0,0,0,0,0,0.1263,0.1265,0.1275,0.1304,0.1314,0.1397,0.1339,0.1345,0.139,0.1388,0.1476,0.1487,0.1504,0.1676,0.1699,0.1768,0.1625,0.2025,0.2037,0.2048,0.2128,0.215,0.2168,0,0,0,0,0,0.1262,0.1287,0.1275,0.1278,0.132,0.14,0.1414,0.1423,0.1395,0.1453,0.1526,0.1485,0.1762,0.169,0.1716,0.1788,0.202,0.2034,0.2047,0.2119,0.2145,0.2168,0,0,0,0,0,0,0.129,0.1289,0.1277,0.1301,0.1356,0.1397,0.1448,0.1448,0.155,0.1561,0.158,0.1603,0.1763,0.1791,0.171,0.1956,0.1879,0.1898,0.1925,0.195,0.197,0.1879,0.1633,0,0,0,0,0,0.1297,0.1315,0.1336,0.1367,0.1396,0.143,0.1465,0.1484,0.1557,0.1596,0.1663,0.1748,0.1843,0.1904,0.2,0.2153,0.2096,0.2217,0.2237,0.2253,0.2204,0.2157,0.2164,0.2098,0.2098,0.2098,0,0,0.1314,0.1319,0.1327,0.1375,0.1419,0.1505,0.1449,0.1533,0.1613,0.1607,0.1773,0.1831,0.1904,0.2065,0.2137,0.2093,0.2271,0.227,0.2282,0.2223,0.2171,0.2176,0.218,0.2107,0.2105,0.2104,0,0,0.1388,0.1373,0.143,0.1484,0.1554,0.1585,0.1613,0.1696,0.1742,0.1911,0.191,0.1992,0.2194,0.2212,0.2253,0.2446,0.2376,0.2517,0.2541,0.2499,0.25,0.25,0.2522,0.2523,0.2524,0.2524,0.2524,0,0.1417,0.1468,0.147,0.1558,0.1595,0.1625,0.1715,0.1795,0.1927,0.1947,0.1988,0.2167,0.224,0.2322,0.2408,0.2475,0.2467,0.2432,0.2511,0.251,0.2507,0.2529,0.2528,0.253,0.2529,0.2529,0.2528,0,0.1549,0.1591,0.1643,0.174,0.1798,0.1887,0.1961,0.2046,0.2102,0.2137,0.2251,0.2344,0.2405,0.2479,0.252,0.2561,0.2572,0.2531,0.2417,0.2517,0.2539,0.2536,0.2538,0.2536,0.2535,0.2533,0,0,0.1616,0.1706,0.1734,0.1769,0.1887,0.1945,0.2075,0.2151,0.218,0.232,0.2337,0.2513,0.2484,0.2527,0.2563,0.2553,0.2596,0.2561,0.2556,0.2524,0.2559,0.2424,0.2409,0.2566,0.2564,0.2563,0.2608,0,0.1724,0.1863,0.1889,0.2027,0.2091,0.2122,0.2218,0.2286,0.2344,0.2393,0.2412,0.2492,0.2529,0.2566,0.2557,0.2577,0.2581,0.259,0.2515,0.2513,0.2328,0.2395,0.2175,0.218,0.2604,0.2604,0.2603,0,0.1863,0.1913,0.2047,0.2092,0.2125,0.2219,0.2277,0.237,0.2409,0.2442,0.2452,0.2471,0.2506,0.2515,0.2526,0.2539,0.2557,0.256,0.256,0.2369,0.2367,0.2139,0.2157,0.2597,0.2598,0.2598,0.2599,0,0.19,0.202,0.2102,0.2141,0.2227,0.2272,0.2326,0.2379,0.242,0.2457,0.2468,0.2473,0.2506,0.2486,0.2536,0.2538,0.2523,0.2509,0.2398,0.2394,0.2146,0.2119,0.2474,0.2474,0.2474,0.2474,0.2474,0,0.1989,0.2067,0.2125,0.2178,0.2255,0.23,0.2372,0.2417,0.2443,0.2466,0.2489,0.2487,0.2498,0.2501,0.2516,0.2451,0.2505,0.2381,0.2365,0.219,0.2166,0.2458,0.2455,0.2476,0.2475,0.2475,0.2475,0,0.2063,0.2101,0.2191,0.226,0.2285,0.2354,0.2419,0.2449,0.2482,0.2504,0.2522,0.2519,0.2507,0.2512,0.2497,0.2425,0.238,0.2351,0.2179,0.2136,0.2296,0.23,0.2197,0.2192,0.2188,0.2184,0.2181,0,0.2145,0.2186,0.2257,0.2292,0.2342,0.2418,0.2457,0.2491,0.2504,0.2512,0.2511,0.2506,0.2419,0.2337,0.2222,0.2153,0.2312,0.1946,0.1855,0.2257,0.2254,0.2264,0.2273,0.1636,0.1629,0.1623,0.1618,0,0.2262,0.2273,0.232,0.2368,0.2422,0.2456,0.2505,0.2503,0.2519,0.2491,0.2421,0.2331,0.2194,0.1941,0.1849,0.1796,0.192,0.1817,0.2251,0.1718,0.1722,0.1722,0.175,0.1566,0.1571,0.1575,0.1578,0.158,0.2354,0.2387,0.2402,0.2446,0.2479,0.2468,0.2465,0.2445,0.2399,0.2248,0.2222,0.1951,0.185,0.1487,0.1437,0.1406,0.1522,0.1467,0.1487,0.1514,0.1417,0.1409,0.1183,0.1186,0.1188,0.1191,0.1193,0,0.2426,0.2428,0.2469,0.2478,0.2471,0.2482,0.2464,0.2331,0.2205,0.2023,0.1825,0.1421,0.1163,0.1147,0.0946,0.0894,0.092,0.0923,0.0956,0.1004,0.1048,0.0932,0.0568,0.0567,0.0566,0.0566,0,0,0.2458,0.2468,0.2448,0.2434,0.2437,0.2378,0.2335,0.2114,0.1916,0.1504,0.1269,0.1056,0.1025,0.0774,0.0728,0.063,0.0838,0.0605,0.1088,0.1171,0.1216,0.1317,0.1185,0,0,0,0,0]},{"header":{"parameterUnit":"m.s-1","parameterCategory":2,"la1":30.2991,"la2":30.254,"lo1":-89.0895,"lo2":-89.0444,"dy":0.0017,"dx":0.0017,"nx":28,"ny":28,"refTime":"2025-01-24T09:00:00:Z","depth":"2","parameterNumber":3,"parameterNumberName":"V-component_of_CURRENTS"},"data":[0,0,0,0,0,0,0,0,0,0,0,0,0,0,0,0,0,0,0,0,0,0,0,0,0,0,0,0,0,0,0,0,0,0,0,0,0,0,0,0,0,0,0,0,0,0,0,0,0,0,0,0,0,0,0,0,0,0,-0.015,-0.015,0,-0.0143,-0.0143,-0.0143,-0.0118,-0.0118,-0.0117,-0.0116,-0.0065,-0.0064,-0.0064,0,0,0,0,0,0,0,0,0,0,0,0,0,-0.0174,-0.0174,-0.015,-0.015,-0.015,-0.0143,-0.0143,-0.0143,-0.0119,-0.0118,-0.0117,-0.0116,-0.0065,-0.0064,-0.0064,0,0,0,0,0,0,0,0,0,0,0,0,0,-0.0166,-0.0173,-0.015,-0.0136,-0.0134,-0.0143,-0.0143,-0.0143,-0.0119,-0.0118,-0.0117,-0.0116,-0.0066,-0.0065,-0.0064,-0.0078,0,0,-0.006,-0.006,0,0,0,0,0,0,0,0,-0.0167,-0.0166,-0.0138,-0.0137,-0.0135,-0.0129,-0.0133,-0.0119,-0.0119,-0.0126,-0.0116,-0.0115,-0.0082,-0.008,-0.0083,-0.0075,-0.0073,-0.006,-0.0059,-0.0059,-0.0059,0,0,0,0,0,0,0,-0.0167,-0.0166,-0.0149,-0.0138,-0.0136,-0.014,-0.0138,-0.0131,-0.011,-0.0125,-0.0123,-0.0121,-0.0081,-0.0085,-0.0082,-0.0072,-0.006,-0.0059,-0.0059,-0.0058,0.0007,0.0008,0,0,0,0,0,0,-0.0165,-0.0166,-0.0149,-0.0149,-0.0147,-0.014,-0.0138,-0.0133,-0.0111,-0.0107,-0.0121,-0.0119,-0.0087,-0.0083,-0.008,-0.0034,-0.0059,-0.0058,-0.0057,0.0006,0.0008,0.0009,0,0,0,0,0,0,-0.0165,-0.0163,-0.0149,-0.0156,-0.0155,-0.0141,-0.0136,-0.0134,-0.013,-0.0109,-0.0103,-0.0118,-0.0086,-0.0081,-0.0046,-0.0034,-0.0058,-0.0057,0.0005,0.0007,0.0008,0.0019,0,0,0,0,0,0,-0.0166,-0.0164,-0.0165,-0.0156,-0.0154,-0.0153,-0.0137,-0.0134,-0.0129,-0.0126,-0.0105,-0.0099,-0.0085,-0.0047,-0.0045,-0.0033,-0.0056,0.0004,0.0006,0.0008,0.0018,0.0021,0.0024,0,0,0,0,0,-0.0167,-0.0171,-0.0165,-0.0163,-0.0155,-0.0153,-0.0153,-0.0141,-0.013,-0.0132,-0.0097,-0.0099,-0.0033,-0.0046,-0.0043,-0.003,0.0003,0.0005,0.0008,0.0016,0.0021,0.0024,0,0,0,0,0,0,-0.0186,-0.0169,-0.0162,-0.0162,-0.0157,-0.0148,-0.015,-0.0142,-0.012,-0.0109,-0.0088,-0.008,-0.0041,-0.0038,-0.0053,-0.0003,-0.0015,-0.0012,-0.001,-0.0005,-0.0002,-0.0064,-0.0055,0,0,0,0,0,-0.019,-0.0187,-0.0174,-0.0176,-0.0171,-0.0161,-0.016,-0.0149,-0.0128,-0.0118,-0.0088,-0.0057,-0.0033,-0.002,0.0005,0.0024,0.0004,0.0036,0.0039,0.0042,-0.0005,-0.0042,-0.0048,0.0017,0.0017,0.0017,0,0,-0.0201,-0.019,-0.019,-0.018,-0.0174,-0.0166,-0.0158,-0.0151,-0.0138,-0.0115,-0.0073,-0.0043,-0.0023,0.0012,0.0027,0.0017,0.0033,0.0045,0.0047,-0.0002,-0.004,-0.0047,-0.0054,0.0019,0.0018,0.0018,0,0,-0.0215,-0.0206,-0.0205,-0.0197,-0.0183,-0.0173,-0.017,-0.0144,-0.0126,-0.0079,-0.0061,-0.0044,0.0028,0.0015,0.0023,0.0049,0.0055,0.0092,0.005,0.0017,0.001,0.0003,0.0047,0.0043,0.0088,0.0088,0.0088,0,-0.0228,-0.0222,-0.0208,-0.0201,-0.0195,-0.0174,-0.017,-0.0152,-0.0111,-0.0107,-0.0054,-0.0008,0.0013,-0.0005,0.002,0.0048,0.0067,0.0035,0.0016,0.0009,0.0001,0.0047,0.0043,0.0089,0.0089,0.0089,0.0088,0,-0.0234,-0.0231,-0.0229,-0.0209,-0.0201,-0.0197,-0.0166,-0.0144,-0.0098,-0.0083,-0.0058,-0.0027,-0.0016,0.0012,0.0032,-0.0008,0.0042,0.0028,-0.0004,-0.0005,0.0046,0.0041,0.009,0.009,0.0089,0.0089,0,0,-0.0258,-0.024,-0.0237,-0.0231,-0.0205,-0.0197,-0.0175,-0.0165,-0.0157,-0.0105,-0.0101,-0.0072,-0.0069,-0.0065,-0.0048,-0.0078,-0.0075,-0.0038,-0.004,-0.0012,-0.0078,-0.001,-0.0007,-0.0078,-0.0081,-0.0083,0.0006,0,-0.0268,-0.0264,-0.0247,-0.0238,-0.0233,-0.0208,-0.0189,-0.0175,-0.0139,-0.0119,-0.0127,-0.0099,-0.0092,-0.0067,-0.0107,-0.0076,-0.0098,-0.0094,-0.0069,-0.0068,-0.0024,-0.0016,-0.0075,-0.0001,0.0001,0.0,-0.0,0,-0.0273,-0.027,-0.0269,-0.0251,-0.0245,-0.0228,-0.0208,-0.0187,-0.0178,-0.0145,-0.0161,-0.0143,-0.0172,-0.0155,-0.0172,-0.0153,-0.0134,-0.0119,-0.0115,-0.0083,-0.0013,-0.0013,-0.001,-0.0008,-0.0007,-0.0007,-0.0006,0,-0.0292,-0.0281,-0.0283,-0.0276,-0.0251,-0.0238,-0.0215,-0.0199,-0.0174,-0.017,-0.014,-0.0184,-0.0156,-0.0186,-0.0124,-0.0147,-0.011,-0.0142,-0.0073,-0.0063,-0.0134,-0.0127,-0.02,-0.02,-0.0201,-0.0201,-0.0201,0,-0.0308,-0.0306,-0.0287,-0.0283,-0.0262,-0.0243,-0.0214,-0.0196,-0.0172,-0.0145,-0.0159,-0.0131,-0.0164,-0.0128,-0.0121,-0.0069,-0.0106,-0.0094,-0.0062,-0.0116,-0.011,-0.0156,-0.0152,-0.0197,-0.0198,-0.0199,-0.0199,0,-0.0322,-0.032,-0.0308,-0.0283,-0.0267,-0.0243,-0.0182,-0.0158,-0.014,-0.0102,-0.0093,-0.0075,-0.0007,0.0003,0.001,-0.0029,-0.0009,0.0014,0.0004,0.0031,0.0057,0.0061,0.0052,0.0055,0.0057,0.0059,0.006,0,-0.0332,-0.0331,-0.0295,-0.0265,-0.0244,-0.0202,-0.0161,-0.0133,-0.0107,-0.0053,-0.0033,0.0041,0.0134,0.0205,0.0134,0.0161,0.014,0.0095,-0.0019,0.0037,0.0071,0.0071,0.0072,-0.0065,-0.0065,-0.0065,-0.0064,0,-0.0333,-0.0316,-0.0293,-0.0236,-0.0188,-0.0146,-0.0094,-0.0074,-0.0038,0.0022,0.0124,0.0212,0.0265,0.0271,0.0282,0.0249,0.0077,0.0102,0.0136,-0.0113,-0.0066,-0.0035,-0.0032,-0.0062,-0.0062,-0.0062,-0.0062,-0.0062,-0.0311,-0.0286,-0.0242,-0.0187,-0.0131,-0.0083,-0.0054,0.0005,0.0078,0.0179,0.0258,0.0402,0.0342,0.0371,0.0321,0.0186,0.0162,0.0067,0.0061,0.0057,0.0034,0.0082,0.0115,0.0116,0.0116,0.0117,0.0117,0,-0.0266,-0.0232,-0.0187,-0.0123,-0.0066,-0.0039,0.0002,0.0047,0.0149,0.0278,0.0435,0.0455,0.0472,0.0416,0.0195,0.0099,0.0031,0.0083,-0.0015,-0.0018,-0.0021,-0.0052,0.0009,0.0009,0.001,0.001,0,0,-0.0234,-0.0182,-0.0165,-0.0075,-0.0019,0.0036,0.0058,0.0134,0.0212,0.0397,0.049,0.0646,0.0521,0.0375,0.0231,0.0109,0.007,0.0088,0.0168,0.0061,0.0061,-0.0049,-0.0102,0,0,0,0,0]}],[{"header":{"parameterUnit":"m.s-1","parameterCategory":2,"la1":30.2991,"la2":30.254,"lo1":-89.0895,"lo2":-89.0444,"dy":0.0017,"dx":0.0017,"nx":28,"ny":28,"refTime":"2025-01-24T09:00:00:Z","depth":"4","parameterNumber":2,"parameterNumberName":"U-component_of_CURRENTS"},"data":[0,0,0,0,0,0,0,0,0,0,0,0,0,0,0,0,0,0,0,0,0,0,0,0,0,0,0,0,0,0,0,0,0,0,0,0,0,0,0,0,0,0,0,0,0,0,0,0,0,0,0,0,0,0,0,0,0,0,0.0598,0.0598,0,0.0597,0.0597,0.0597,0.0618,0.0618,0.0619,0.062,0.0626,0.0626,0.0625,0,0,0,0,0,0,0,0,0,0,0,0,0,0.0611,0.0611,0.0598,0.0598,0.0598,0.0597,0.0597,0.0597,0.0618,0.0619,0.0619,0.062,0.0627,0.0626,0.0625,0,0,0,0,0,0,0,0,0,0,0,0,0,0.0606,0.0611,0.0598,0.0609,0.061,0.0597,0.0597,0.0597,0.0618,0.0619,0.062,0.062,0.0627,0.0626,0.0625,0.0601,0,0,0.0623,0.0623,0,0,0,0,0,0,0,0,0.0607,0.0606,0.0607,0.0608,0.0609,0.061,0.0604,0.0599,0.0617,0.0613,0.062,0.0621,0.0621,0.0621,0.0617,0.0601,0.0602,0.0623,0.0623,0.0623,0.0622,0,0,0,0,0,0,0,0.0607,0.0606,0.0596,0.0607,0.0609,0.0613,0.0613,0.0603,0.0611,0.0614,0.0616,0.0617,0.0622,0.0618,0.0617,0.0602,0.0623,0.0623,0.0622,0.0622,0.0618,0.0619,0,0,0,0,0,0,0.0608,0.0606,0.0596,0.0596,0.0612,0.0612,0.0612,0.0608,0.0611,0.0613,0.0616,0.0618,0.0618,0.0618,0.0618,0.0638,0.0623,0.0622,0.0622,0.0618,0.0619,0.0619,0,0,0,0,0,0,0.0609,0.0607,0.0596,0.0603,0.0602,0.061,0.0605,0.0607,0.062,0.0613,0.0615,0.063,0.0619,0.0619,0.0633,0.0637,0.0622,0.0621,0.0618,0.0618,0.0619,0.0647,0,0,0,0,0,0,0.0609,0.0607,0.061,0.0602,0.0601,0.0599,0.0605,0.0606,0.0619,0.0622,0.0625,0.0625,0.062,0.0635,0.0633,0.0635,0.0621,0.0617,0.0618,0.0619,0.0646,0.0648,0.0651,0,0,0,0,0,0.0609,0.0606,0.061,0.0609,0.0603,0.0599,0.0599,0.0608,0.0619,0.0624,0.0636,0.0626,0.0637,0.0635,0.0632,0.0635,0.0617,0.0618,0.0619,0.0645,0.0648,0.0651,0,0,0,0,0,0,0.0611,0.0607,0.0612,0.0608,0.061,0.0604,0.061,0.0615,0.0626,0.0638,0.0633,0.0634,0.064,0.0637,0.0635,0.0635,0.0623,0.0624,0.0644,0.0647,0.0649,0.0628,0.062,0,0,0,0,0,0.0613,0.0611,0.061,0.0607,0.0611,0.0613,0.0616,0.0624,0.063,0.0637,0.0641,0.0645,0.0636,0.0645,0.0635,0.0643,0.0629,0.0642,0.0644,0.0647,0.0628,0.0619,0.0618,0.0621,0.0621,0.0621,0,0,0.0613,0.061,0.061,0.0608,0.0611,0.0608,0.0618,0.0628,0.0627,0.0634,0.0645,0.0649,0.0638,0.0643,0.0646,0.0647,0.0644,0.0647,0.0649,0.0629,0.0619,0.0619,0.0618,0.0622,0.0622,0.0621,0,0,0.0604,0.0612,0.0607,0.0608,0.0617,0.0618,0.0625,0.0633,0.0643,0.065,0.0654,0.0665,0.066,0.0657,0.0651,0.0661,0.0649,0.0664,0.0669,0.0662,0.0661,0.0661,0.0664,0.0663,0.0676,0.0676,0.0676,0,0.0609,0.0594,0.0606,0.0599,0.0601,0.0622,0.0619,0.0623,0.0638,0.0641,0.0658,0.065,0.0657,0.0646,0.066,0.0664,0.0663,0.0661,0.0665,0.0664,0.0662,0.0666,0.0664,0.0678,0.0677,0.0677,0.0677,0,0.0586,0.0583,0.0582,0.0578,0.0585,0.0587,0.0599,0.0615,0.0634,0.0632,0.0636,0.0649,0.0648,0.0655,0.0663,0.0659,0.0664,0.0662,0.0657,0.0663,0.0667,0.0665,0.068,0.0679,0.0679,0.0678,0,0,0.0564,0.0567,0.0564,0.0563,0.0577,0.0576,0.0588,0.0591,0.0597,0.0611,0.0614,0.0614,0.0634,0.0628,0.0647,0.0648,0.0661,0.0662,0.0661,0.0664,0.0656,0.0616,0.0611,0.0666,0.0665,0.0665,0.067,0,0.0541,0.0527,0.0534,0.0525,0.0523,0.0549,0.0551,0.0563,0.0585,0.0598,0.0605,0.0618,0.0619,0.0649,0.0642,0.0659,0.0654,0.066,0.0648,0.0647,0.061,0.0605,0.0663,0.0669,0.0668,0.0668,0.0668,0,0.0502,0.0503,0.0496,0.0501,0.0503,0.0507,0.053,0.0537,0.0559,0.0577,0.059,0.0611,0.0628,0.0635,0.0631,0.064,0.0643,0.0644,0.0645,0.0587,0.0603,0.0654,0.0664,0.0664,0.0664,0.0665,0.0665,0,0.0465,0.0466,0.0464,0.0465,0.048,0.0492,0.0509,0.0534,0.055,0.0588,0.0613,0.0613,0.0647,0.0631,0.0646,0.0652,0.0631,0.0644,0.0595,0.0594,0.0617,0.0617,0.0613,0.0613,0.0613,0.0613,0.0613,0,0.0419,0.041,0.0453,0.0444,0.0451,0.0478,0.0496,0.0512,0.0554,0.0569,0.0612,0.0627,0.0649,0.065,0.0642,0.0608,0.0627,0.0579,0.0582,0.0633,0.0635,0.0617,0.0617,0.0614,0.0614,0.0614,0.0613,0,0.0362,0.0385,0.0382,0.0414,0.0432,0.0442,0.0497,0.0511,0.0558,0.0591,0.0616,0.0653,0.0661,0.0658,0.065,0.0612,0.0584,0.0561,0.0619,0.0628,0.0557,0.0559,0.0518,0.0517,0.0515,0.0514,0.0513,0,0.0328,0.0323,0.0364,0.038,0.0398,0.0435,0.046,0.0508,0.053,0.0592,0.0598,0.0642,0.0657,0.0605,0.0601,0.0569,0.0552,0.0536,0.0532,0.0535,0.0543,0.0547,0.0551,0.0511,0.0511,0.0511,0.051,0,0.0267,0.0289,0.0296,0.0337,0.0369,0.0395,0.0438,0.0449,0.0507,0.0563,0.0582,0.0594,0.0593,0.0581,0.0558,0.0528,0.0548,0.0522,0.0524,0.0521,0.0527,0.0536,0.0541,0.0505,0.0506,0.0507,0.0507,0,0.0232,0.0227,0.0256,0.0281,0.0321,0.0339,0.0369,0.0407,0.0435,0.0516,0.0517,0.0552,0.0594,0.0558,0.0528,0.0506,0.0499,0.0475,0.048,0.0485,0.0467,0.0468,0.0418,0,0,0,0,0,0.0208,0.0194,0.0205,0.0217,0.0256,0.0285,0.0344,0.0379,0.0443,0.0449,0.0487,0.0491,0.0486,0.0491,0.0459,0.0486,0.048,0.0444,0.045,0.048,0.0485,0.0464,0,0,0,0,0,0,0.0189,0.0193,0.0181,0.0165,0.0173,0.0204,0.0246,0.0294,0.0303,0.038,0.0379,0.0445,0.0439,0.0494,0.0443,0.0443,0.0432,0.0468,0.0466,0.0477,0.0481,0.0486,0.0466,0,0,0,0,0]},{"header":{"parameterUnit":"m.s-1","parameterCategory":2,"la1":30.2991,"la2":30.254,"lo1":-89.0895,"lo2":-89.0444,"dy":0.0017,"dx":0.0017,"nx":28,"ny":28,"refTime":"2025-01-24T09:00:00:Z","depth":"4","parameterNumber":3,"parameterNumberName":"V-component_of_CURRENTS"},"data":[0,0,0,0,0,0,0,0,0,0,0,0,0,0,0,0,0,0,0,0,0,0,0,0,0,0,0,0,0,0,0,0,0,0,0,0,0,0,0,0,0,0,0,0,0,0,0,0,0,0,0,0,0,0,0,0,0,0,-0.0098,-0.0098,0,-0.0088,-0.0088,-0.0088,-0.0061,-0.006,-0.0059,-0.0059,-0.0061,-0.0062,-0.0062,0,0,0,0,0,0,0,0,0,0,0,0,0,-0.0119,-0.0118,-0.0098,-0.0098,-0.0098,-0.0088,-0.0088,-0.0088,-0.0061,-0.006,-0.0059,-0.0058,-0.0061,-0.0062,-0.0062,0,0,0,0,0,0,0,0,0,0,0,0,0,-0.011,-0.0118,-0.0098,-0.0082,-0.0081,-0.0088,-0.0088,-0.0088,-0.0061,-0.006,-0.0059,-0.0058,-0.0061,-0.0062,-0.0063,-0.0088,0,0,-0.0066,-0.0066,0,0,0,0,0,0,0,0,-0.011,-0.0109,-0.0085,-0.0084,-0.0082,-0.0074,-0.0096,-0.0088,-0.0061,-0.0069,-0.0059,-0.0058,-0.0067,-0.0067,-0.0068,-0.0088,-0.0088,-0.0066,-0.0066,-0.0067,-0.0067,0,0,0,0,0,0,0,-0.0111,-0.011,-0.0095,-0.0085,-0.0083,-0.0084,-0.0082,-0.0094,-0.0074,-0.0068,-0.0066,-0.0064,-0.0066,-0.0067,-0.0068,-0.0088,-0.0066,-0.0066,-0.0067,-0.0067,-0.0172,-0.0175,0,0,0,0,0,0,-0.0111,-0.011,-0.0095,-0.0094,-0.0093,-0.0085,-0.0082,-0.0078,-0.0074,-0.0072,-0.0065,-0.0063,-0.0066,-0.0067,-0.0068,-0.0115,-0.0067,-0.0068,-0.0068,-0.017,-0.0173,-0.0175,0,0,0,0,0,0,-0.0111,-0.0109,-0.0095,-0.0101,-0.01,-0.0085,-0.0081,-0.0078,-0.0076,-0.0071,-0.0069,-0.0065,-0.0065,-0.0067,-0.009,-0.0114,-0.0068,-0.0069,-0.0168,-0.0171,-0.0174,-0.0198,0,0,0,0,0,0,-0.0112,-0.011,-0.0113,-0.0101,-0.0099,-0.0105,-0.0082,-0.0079,-0.0076,-0.0073,-0.0071,-0.007,-0.0065,-0.0088,-0.0091,-0.0115,-0.007,-0.0165,-0.0169,-0.0173,-0.0195,-0.0202,-0.0208,0,0,0,0,0,-0.0112,-0.012,-0.0113,-0.0111,-0.0102,-0.0105,-0.0105,-0.0092,-0.0077,-0.0085,-0.0087,-0.007,-0.0117,-0.0091,-0.0093,-0.0118,-0.0163,-0.0168,-0.0173,-0.0191,-0.02,-0.0208,0,0,0,0,0,0,-0.0134,-0.0118,-0.0109,-0.0112,-0.0111,-0.0101,-0.0107,-0.0096,-0.0102,-0.0101,-0.009,-0.0091,-0.0123,-0.0125,-0.0097,-0.0166,-0.0141,-0.0146,-0.0154,-0.0163,-0.0169,-0.0103,-0.0071,0,0,0,0,0,-0.014,-0.014,-0.0128,-0.0133,-0.0132,-0.012,-0.0121,-0.0113,-0.0113,-0.0114,-0.0114,-0.0127,-0.0148,-0.0156,-0.0175,-0.0206,-0.0175,-0.023,-0.0237,-0.0242,-0.0194,-0.0174,-0.0173,-0.0191,-0.0191,-0.0191,0,0,-0.0153,-0.0142,-0.0144,-0.0138,-0.0134,-0.0134,-0.0118,-0.0123,-0.0123,-0.0116,-0.0128,-0.0148,-0.0164,-0.02,-0.0216,-0.0201,-0.0234,-0.0248,-0.0252,-0.02,-0.0179,-0.0176,-0.0174,-0.0195,-0.0194,-0.0194,0,0,-0.0168,-0.0166,-0.0165,-0.0165,-0.016,-0.0154,-0.0155,-0.0152,-0.0151,-0.0174,-0.0171,-0.0189,-0.0234,-0.0232,-0.0241,-0.0295,-0.0271,-0.0334,-0.0307,-0.0292,-0.0288,-0.0284,-0.0285,-0.0281,-0.0336,-0.0336,-0.0336,0,-0.0181,-0.0168,-0.017,-0.0167,-0.0157,-0.0161,-0.0152,-0.0164,-0.0171,-0.0161,-0.0185,-0.0214,-0.0237,-0.024,-0.027,-0.0302,-0.0298,-0.0272,-0.0294,-0.0289,-0.0285,-0.0286,-0.0281,-0.0338,-0.0338,-0.0337,-0.0337,0,-0.0185,-0.0177,-0.018,-0.0169,-0.0171,-0.0168,-0.0174,-0.0181,-0.019,-0.0188,-0.0202,-0.0233,-0.0232,-0.0276,-0.0291,-0.0284,-0.0296,-0.0303,-0.0259,-0.0283,-0.0286,-0.028,-0.034,-0.034,-0.0339,-0.0339,0,0,-0.0183,-0.0179,-0.0175,-0.0157,-0.0162,-0.0155,-0.0168,-0.0155,-0.0138,-0.0177,-0.0149,-0.0207,-0.0204,-0.0212,-0.0239,-0.0236,-0.0238,-0.026,-0.0258,-0.0233,-0.0217,-0.0242,-0.0239,-0.0254,-0.0252,-0.0251,-0.0245,0,-0.017,-0.0151,-0.0155,-0.0136,-0.0119,-0.0125,-0.0126,-0.0126,-0.0138,-0.0128,-0.0146,-0.015,-0.0189,-0.0195,-0.0196,-0.0224,-0.0217,-0.0239,-0.0217,-0.0216,-0.0212,-0.023,-0.0246,-0.0241,-0.0239,-0.0238,-0.0237,0,-0.0148,-0.0134,-0.011,-0.0082,-0.0075,-0.0074,-0.0044,-0.0048,-0.0047,-0.0055,-0.0051,-0.007,-0.0069,-0.0107,-0.0116,-0.0134,-0.0159,-0.0183,-0.0184,-0.0174,-0.0228,-0.0203,-0.0226,-0.0227,-0.0228,-0.0229,-0.0229,0,-0.0107,-0.009,-0.006,-0.0054,-0.0042,-0.0028,-0.002,-0.0019,-0.0002,0.0002,0.0012,0.0008,0.0004,-0.0014,-0.0083,-0.0096,-0.0099,-0.0122,-0.0159,-0.0163,-0.0126,-0.0129,-0.0095,-0.0095,-0.0095,-0.0095,-0.0095,0,-0.0068,-0.0045,-0.0038,-0.002,0.002,0.0013,0.0052,0.0053,0.0069,0.0098,0.0064,0.0077,0.0028,0.0003,-0.0049,-0.0092,-0.0069,-0.0128,-0.0149,-0.0149,-0.0154,-0.0124,-0.0128,-0.0095,-0.0095,-0.0095,-0.0095,0,-0.0032,-0.0028,0.0007,0.0029,0.0039,0.0066,0.0096,0.0123,0.0127,0.0164,0.0171,0.0141,0.0097,0.0036,-0.0011,-0.0048,-0.009,-0.0109,-0.0111,-0.0136,-0.0171,-0.0176,-0.0125,-0.0126,-0.0127,-0.0127,-0.0127,0,-0.0016,0.0007,0.0043,0.0064,0.0072,0.0108,0.0135,0.0152,0.0177,0.0198,0.022,0.0186,0.0154,0.0075,-0.0002,-0.0086,-0.0103,-0.0116,-0.0122,-0.0142,-0.0167,-0.0172,-0.0177,-0.0128,-0.0128,-0.0128,-0.0128,0,0.0014,0.0026,0.0052,0.0096,0.0128,0.0169,0.0203,0.0232,0.0255,0.0268,0.0269,0.0221,0.0168,0.008,0.0005,-0.0057,-0.0102,-0.0121,-0.012,-0.0126,-0.0144,-0.017,-0.0174,-0.013,-0.013,-0.013,-0.0129,0,0.0034,0.0048,0.0081,0.012,0.0163,0.0205,0.0229,0.0258,0.0288,0.0309,0.0305,0.024,0.0204,0.0094,0.0025,-0.0043,-0.0054,-0.006,-0.0063,-0.0062,-0.0057,-0.0073,-0.003,0,0,0,0,0,0.0054,0.0066,0.01,0.0139,0.0184,0.0211,0.0262,0.0282,0.0311,0.0324,0.0318,0.0265,0.0164,0.0109,0.0041,0.0005,-0.0076,-0.0076,-0.0087,-0.0139,-0.0137,-0.0146,0,0,0,0,0,0,0.0064,0.0093,0.0097,0.0146,0.0178,0.0228,0.0265,0.029,0.0294,0.0312,0.0252,0.0248,0.0135,0.0196,0.0035,0.0014,0.0001,-0.0123,-0.0124,-0.014,-0.0138,-0.0137,-0.0145,0,0,0,0,0]}]]